ギブス彗星

341P/Gibbs (2007)

English version
Home page
Updated on July 22, 2016

---------------------------------------------------------------------

・ プロフィール

符号 341P/2007 R3
発見日 2007年9月14日
発見光度 18.9等
発見者 A. R. Gibbs (Mt. Lemmon Survey)

・ 軌道要素

Epoch 2007 June 29.0 TT = JDT 2454280.5
T 2007 July 6.62611 TT                                  MPCW
q   2.4998210            (2000.0)            P               Q
n   0.11132111     Peri.  312.17869     +0.95165013     +0.30538172
a   4.2797430      Node    30.08471     -0.25867035     +0.85499559
e   0.4158946      Incl.    3.80060     -0.16568549     +0.41919512
P   8.85
From 126 observations 2007 Sept. 10-2016 July 17, mean residual 0".6.

・ 光度変化

        m1 = 13.5 + 5 logΔ + 10.0 log r

---------------------------------------------------------------------

軌道要素はM.P.E.C. 2016-O265に掲載されたものです。
光度グラフはComet for Windowsで作成したものです。

---------------------------------------------------------------------

Copyright(C) Seiichi Yoshida (comet@aerith.net). All rights reserved.